Location: Zagreb
(45.8000°N, 16.0000°E)
Time: 00:23:40
(UTC+02:00)

Courier 1B - Visible Passes

Search period start: 02 October 2020 00:00
Search period end: 12 October 2020 00:00
Orbit: 963 x 1209 km, 28.3° (Epoch: 01 October)

Date Brightness Start Highest point End Pass type
(mag) Time Alt. Az. Time Alt. Az. Time Alt. Az.
04 Oct 9.9 21:22:36 10° SSW 21:23:38 12° SSW 21:23:38 12° SSW visible
05 Oct 9.6 20:29:48 10° S 20:33:19 14° SSE 20:33:19 14° SSE visible
06 Oct 9.7 19:37:42 10° S 19:40:02 11° SSE 19:42:23 10° SE visible
06 Oct 9.7 21:27:42 10° SW 21:29:51 16° SSW 21:29:51 16° SSW visible
07 Oct 9.4 20:34:28 10° SSW 20:39:18 18° SSE 20:39:26 18° SSE visible
08 Oct 9.6 19:41:31 10° SSW 19:45:43 16° SSE 19:49:00 12° SE visible
08 Oct 9.7 21:33:18 10° SW 21:35:53 17° SSW 21:35:53 17° SSW visible
09 Oct 9.7 18:49:00 10° S 18:52:11 13° SSE 18:55:25 10° SE visible
09 Oct 9.3 20:39:50 10° SW 20:45:06 20° S 20:45:24 20° S visible
10 Oct 9.4 19:46:35 10° SSW 19:51:29 19° S 19:54:55 14° SE visible
10 Oct 9.7 21:39:19 10° SW 21:41:48 16° SSW 21:41:48 16° SSW visible
11 Oct 9.6 18:53:32 10° SSW 18:57:55 17° SSE 19:02:25 10° SE visible
11 Oct 9.3 20:45:40 10° SW 20:50:54 20° S 20:51:17 20° S visible
